Regional Weather Roundup
Issued by NWS Cleveland, OH

Home | Current Version | Previous Version | Graphics & Text | Print | Product List | Glossary On
Versions: 1 2 3 4 5 6 7 8 9 10 11 12 13 14 15 16 17 18 19 20 21 22 23 24 25 26 27 28 29 30 31 32 33 34 35 36 37 38 39 40 41 42 43 44 45 46 47 48 49 50
000
ASUS41 KCLE 250010
RWRCLE
OHIO REGIONAL WEATHER ROUNDUP
NATIONAL WEATHER SERVICE WILMINGTON, OH
800 PM EDT FRI APR 24 2015

NOTE: "FAIR" INDICATES FEW OR NO CLOUDS BELOW 12,000 FEET WITH NO
SIGNIFICANT WEATHER AND/OR OBSTRUCTIONS TO VISIBILITY.

OHZ001>008-015>018-024>027-034-035-043-044-250100-
   NORTHWEST OHIO

CITY           SKY/WX    TMP DP  RH WIND       PRES   REMARKS
DEFIANCE       CLOUDY    59  19  21 CALM      29.95F
FINDLAY        CLOUDY    58  19  22 CALM      29.96S
TOLEDO EXPRESS PTCLDY    56  21  25 N3        29.96F
TOLEDO EXEC    CLEAR     53  28  38 E8        29.97F
LIMA           MOCLDY    55  26  32 SW5       29.97R
$$

OHZ009>014-019>023-028>033-038-089-250100-
   NORTHEAST OHIO

CITY           SKY/WX    TMP DP  RH WIND       PRES   REMARKS
CLE-HOPKINS    PTCLDY    46  23  40 NE8       30.02S
CLE-LAKEFRONT  CLEAR     46  25  43 NE7       30.00F
CUY CO. ARPT   PTCLDY    46  39  76 NE9       30.02S
LORAIN-ELYRIA  CLEAR     48  29  47 E7        29.99F
ASHTABULA      CLEAR     43  20  39 NE3       30.04R
AKRON-CANTON   MOCLDY    49  20  31 NE10      29.99R
WOOSTER        PTCLDY    49  28  44 N7        29.98S
MANSFIELD      PTCLDY    52  22  30 NW5       29.97S
YOUNGSTOWN     PTCLDY    44  20  38 N9        30.00F
$$

OHZ042-051>053-060>062-070>072-077>081-250100-
  SOUTHWEST OHIO

CITY           SKY/WX    TMP DP  RH WIND       PRES   REMARKS
CINC-COVINGTON CLOUDY    56  33  42 S9        29.96F
CINC-LUNKEN    CLOUDY    58  31  35 CALM      29.97F
HAMILTON       CLOUDY    60  27  28 CALM      29.97F
DAYTON         CLOUDY    57  27  31 SW6       29.98S
WRIGHT-PAT AFB MOCLDY    57  25  29 S5        29.97F
DAYTON GENERAL MOCLDY    56  26  31 SE3       29.96F
WILMINGTON     MOCLDY    53  31  42 SE5       29.98F
$$

OHZ036-037-039>041-045>050-054>059-063>069-073>076-082>088-250100-
  CENTRAL AND SOUTHEAST OHIO

CITY           SKY/WX    TMP DP  RH WIND       PRES   REMARKS
COLUMBUS       CLOUDY    56  24  29 SW7       29.98S
OSU AIRPORT    MOCLDY    54  26  34 SW6       29.98S
BOLTON FIELD   MOCLDY    54  31  40 S5        29.99S
RICKENBACK AFB MOCLDY    54  30  41 S5        29.98S
NEWARK         MOCLDY    54  27  35 SW5       29.98R
MARION         MOCLDY    56  22  26 CALM      29.98S
LANCASTER      MOCLDY    54  28  36 SW3       29.99R
ZANESVILLE     MOCLDY    52  24  33 SW5       29.98S
NEW PHILLY     PTCLDY    55  25  31 N3        29.98F
$$



USA.gov is the U.S. government's official web portal to all federal, state and local government web resources and services.